Simultaneous Nadir Overpasses (SNOs) Predictions

Prediction of SNOs between AURA and NPP Satellite Orbit:

Table of predicted SNOs for the next 14.0 days since TLE Epoch: 2/19/2016
Index Date (AURA) Time (AURA) Lat,Lon (AURA) SZA (AURA ) Date (NPP) Time (NPP) Lat,Lon (NPP) SZA (NPP ) Distance(km) Time Diff (sec)
1 02/21/2016 02:52:28 79.43, 33.38 103.70 02/21/2016 02:52:09 79.44, 33.45 103.70 1.74 19
2 02/21/2016 03:41:50 -79.63,-157.62 76.60 02/21/2016 03:42:49 -79.62,-157.76 76.62 3.07 59
3 02/23/2016 18:19:35 -79.25, -19.62 76.99 02/23/2016 18:18:22 -79.25, -19.56 76.95 1.44 73
4 02/23/2016 19:08:55 79.47, 149.50 102.68 02/23/2016 19:09:00 79.46, 149.41 102.69 1.81 5
5 02/26/2016 10:36:00 -79.31, 96.65 78.07 02/26/2016 10:35:11 -79.31, 96.66 78.04 0.36 49
6 02/26/2016
